Location: B�rgermoos
(47.6500°N, 9.0667°E)
Time: 18:59:29
(UTC+00:00)

Courier 1B Rocket - Visible Passes

Search period start: 27 July 2021 00:00
Search period end: 06 August 2021 00:00
Orbit: 920 x 1202 km, 28.2° (Epoch: 26 July)

Date Brightness Start Highest point End Pass type
(mag) Time Alt. Az. Time Alt. Az. Time Alt. Az.
30 Jul 6.8 03:22:36 10° SSW 03:24:55 12° S 03:27:12 10° SSE visible
31 Jul 6.8 02:23:04 11° S 02:24:18 12° S 02:26:20 10° SSE visible
01 Aug 6.7 03:13:16 10° SSW 03:15:45 12° S 03:18:11 10° SSE visible
02 Aug 6.7 02:14:50 13° S 02:15:08 13° S 02:17:47 10° SSE visible
03 Aug 6.7 03:04:21 10° SSW 03:06:34 12° S 03:08:44 10° SSE visible
04 Aug 6.7 02:06:50 13° S 02:06:50 13° S 02:08:47 10° SSE visible
05 Aug 6.8 02:56:12 10° SSW 02:57:20 10° SSW 02:58:31 10° S visible
